Location: Napier
(39.4830°S, 176.9170°E)
Time: 21:21:47
(UTC+13:00)

ISS - Pass Details

Date: 28 January 2019
Orbit: 411 x 421 km, 51.6° (Epoch: 18 October)

Event Time Altitude Azimuth Distance (km) Brightness Sun altitude
Exits shadow 04:07:14 - 49° (NE) 1,603 -0.8 -20.8°
Enters shadow 05:04:21 -73° 305° (NW) 12,623 3.7 -12.8°
Maximum altitude 05:43:53 86° 37° (NE) 428 -3.7 -6.4°
